Погода в Уджде

Марокко     34°40′50″N   1°55′10″W
темп.,
°C
ветер,
м/с
пор.,
м/с
влажн.,
%
обл.,
%
осадки,
мм/ч
давл.,
гПа
погр.,
м
5 марта, пт
пт501:00+8ююз009785 0.1 101722
04:00+9юз238989 0.0 101523
07:00+10ююз228595 0.0 101536
10:00+15зюз4755100 0.0 1015935
13:00+17зюз5546100 0.0 10151597
16:00+15юв2354100 0.1 1013938
19:00+14св456460 0.3 101378
22:00+12вюв248067 0.9 1015174
6 марта, сб
сб601:00+10всв129479 1.8 101524
04:00+10в1291100 0.1 101425
07:00+10св2389100 0.1 101434
10:00+15юв3754100 0.0 1015692
13:00+21ю111432100 0.1 10142701
16:00+21ю10143198 0.0 10122933
19:00+15з456797 0.1 1012129
22:00+12вюв1175100 1.8 101548
7 марта, вс
вс701:00+12з2280100 2.6 101637
04:00+10зсз3391100 0.6 101536
07:00+9зсз0195100 0.7 101537
10:00+14ю256793 0.1 1016756
13:00+16юз455297 0.9 10161392
16:00+13сз798398 2.9 1014681
19:00+11ссз589298 5.8 1015583
22:00+11сз3687100 0.8 1017586
8 марта, пн
пн801:00+10з1193100 1.1 101764
04:00+8зюз239452 0.0 101734
07:00+8зюз339127 0.1 101737
10:00+12з46740 0.1 1018766
13:00+15зсз675514 0.6 10171426
16:00+14ссз776358 0.9 10151064
19:00+11ссв337161 1.1 101668
22:00+9в118275 0.0 101722
9 марта, вт
вт901:00+8с118387 0.0 101822
04:00+9ююз128287 0.0 101731
07:00+7зюз338671 0.0 101847
10:00+10зюз346711 0.1 1019484
13:00+13сз225318 0.2 10191398
16:00+13с555660 0.3 10181239
19:00+10с337546 0.3 1019185
22:00+7ююв11880 0.0 102222